Погода в Или

Россия / Иркутская область     54°09′58″N   101°22′59″E
темп.,
°C
ветер,
м/с
пор.,
м/с
влажн.,
%
обл.,
%
осадки,
мм/ч
давл.,
гПа
погр.,
м
26 июня, вс
вс2623:00+13юз36955 0.6 100795
02:00+13зюз359499 0.6 100879
05:00+12з229396 0.0 100840
08:00+17ю348376 0.0 1008219
11:00+23ююз3552100 0.0 10071176
14:00+26зюз244066 0.0 10041974
17:00+28сз25385 0.0 10032087
20:00+24вюв236024 0.0 100339
27 июня, пн
пн2723:00+20ю387045 0.0 1004163
02:00+16ю23780 0.0 100336
05:00+15вюв22810 0.0 100311
08:00+20юв357113 0.3 1002186
11:00+27ю34475 0.0 1001607
14:00+32зсз1331100 0.0 10001864
17:00+32с233580 0.0 9991614
20:00+19вюв3684100 1.7 100284
28 июня, вт
вт2823:00+17юз37935 0.1 1001115
02:00+16юв3391100 0.1 99944
05:00+16в359326 0.0 99894
08:00+20ююв4118096 0.0 998336
11:00+25сз576199 0.0 10001047
14:00+28с684710 0.0 10001414
17:00+27ссз7749100 0.0 10011747
20:00+18сз71290100 0.8 1004474
29 июня, ср
ср2923:00+16сз2696100 0.1 1004219
02:00+16ссз3995100 0.6 1005360
05:00+14ссз3989100 0.4 1006346
08:00+14ссз3886100 0.4 1006353
11:00+14ссз4983100 0.0 1007389
14:00+14сз4783100 0.1 1008418
17:00+14с348799 6.7 1009512
20:00+15вюв11775 6.7 1009418
30 июня, чт
чт3023:00+11ююв11930 0.0 100910
02:00+10юв22940 0.0 100925
05:00+9юв22950 0.0 100836
08:00+14юв47780 0.0 1007314
11:00+20юв57585 0.0 1005718
14:00+25юв45450 0.0 10031081
17:00+26юв454790 0.0 10021164
20:00+22вюв376799 0.0 1001222